#timestamp,LO_Frequency,Hit 
1499058015.0,286047035.0,N
1499058015.9,286047035.0,N
1499058035.8,286047037.9,N
1499058055.6,286047037.7,N
1499058075.4,286047036.2,N
1499058095.2,286047037.4,N
1499058115.1,286047034.9,N
1499058116.0,286047034.9,N
1499058135.8,286047037.4,N
1499058155.6,286047038.9,N
1499058175.5,286047037.4,N
1499058195.3,286047036.4,N
1499058215.1,286047035.0,N
1499058235.9,286047039.2,N
1499058255.7,286047040.6,N
1499058275.5,286047040.0,N
1499058295.4,286047042.0,N
1499058315.2,286047044.0,N
1499058335.0,286047039.7,N
1499058335.9,286047039.7,N
1499058355.8,286047040.1,N
1499058375.6,286047041.5,N
1499058395.4,286047038.1,N
1499058415.2,286047038.4,N
1499058435.1,286047040.8,N
1499058436.0,286047040.8,N
1499058455.8,286047040.5,N
1499058475.6,286047041.0,N
1499058495.5,286047041.0,N
1499058515.3,286047039.5,N
1499058535.1,286047039.0,N
1499058555.9,286047038.9,N
1499058575.7,286047036.5,N
1499058595.5,286047037.0,N
1499058615.4,286047036.7,N
1499058635.2,286047038.7,N
1499058655.0,286047036.5,N
1499058655.9,286047036.5,N
1499058675.8,286047037.4,N
1499058695.6,286047036.5,N
1499058715.4,286047039.6,N
1499058735.3,286047038.7,N
1499058755.1,286047038.8,N
1499058756.0,286047038.8,N
1499058775.8,286047039.0,N
1499058795.6,286047038.4,N
1499058815.5,286047039.1,N
1499058835.3,286047037.4,N
1499058855.1,286047039.2,N
1499058875.9,286047038.6,N
1499058895.7,286047036.8,N
1499058915.5,286047038.5,N
1499058935.4,286047042.1,N
1499058955.2,286047043.4,N
1499058975.0,286047043.7,N
1499058975.9,286047043.7,N
1499058995.8,286047041.4,N
1499059015.6,286047045.2,N
1499059035.4,286047044.7,N
1499059055.3,286047047.6,Y
1499059075.1,286047007.8,N
1499059076.0,286047007.8,N
1499059095.8,286047008.2,N
1499059115.7,286047010.6,N
1499059135.5,286047010.1,N
1499059155.3,286047012.0,N
1499059175.2,286047009.0,N
1499059195.9,286047008.5,N
1499059215.7,286047006.0,N
1499059235.6,286047005.5,N
1499059255.4,286047006.1,N
1499059275.2,286047004.8,N
1499059295.0,286047005.5,N
1499059296.0,286047005.5,N
1499059315.8,286047000.2,N
1499059335.6,286047000.1,N
1499059355.4,286047001.8,N
1499059375.3,286047001.7,N
1499059395.1,286047005.9,N
1499059415.8,286047004.5,N
1499059435.7,286047006.6,N
1499059455.5,286047008.9,N
1499059475.3,286047007.7,N
1499059495.2,286047008.4,N
1499059515.9,286047007.3,N
1499059535.7,286047001.5,N
1499059555.6,286047003.4,N
1499059575.4,286047004.3,N
1499059595.2,286047002.5,N
1499059615.1,286046999.7,N
1499059616.0,286046999.7,N
1499059635.8,286047000.8,N
1499059655.6,286046997.5,N
1499059675.4,286046999.5,N
1499059695.3,286046995.0,N
1499059715.1,286046996.1,N
1499059735.8,286046997.5,N
1499059755.7,286047001.0,N
1499059775.5,286046997.2,N
1499059795.3,286046997.5,N
1499059815.2,286047001.0,N
1499059835.9,286047003.5,N
1499059855.7,286047005.0,N
1499059875.6,286047005.0,N
1499059895.4,286047005.3,N
1499059915.2,286047001.5,N
1499059935.1,286047001.4,N
1499059936.0,286047001.4,N
1499059955.8,286047005.2,N
1499059975.6,286047007.6,N
1499059995.5,286047009.2,N
1499060015.3,286047004.8,N
1499060035.1,286046998.7,N
1499060055.8,286046999.6,N
1499060075.7,286046997.0,N
1499060095.5,286046993.3,N
1499060115.3,286046994.8,N
1499060135.2,286046993.3,N
1499060155.9,286046994.2,N
1499060175.7,286046993.7,N
1499060195.6,286046993.5,N
1499060215.4,286046996.8,N
1499060235.2,286046998.1,N
1499060255.1,286046996.6,N
1499060256.0,286046996.6,N
1499060275.8,286046994.9,N
1499060295.6,286046996.7,N
1499060315.5,286046997.0,N
1499060335.3,286046998.4,N
1499060355.1,286046998.4,N
1499060375.8,286046997.7,N
1499060395.7,286046999.5,N
1499060415.5,286046999.1,N
1499060435.3,286046997.4,N
1499060455.2,286046994.9,N
1499060475.9,286046999.0,N
1499060495.7,286047004.1,N
1499060515.6,286047003.4,N
1499060535.4,286047003.3,N
1499060555.2,286047003.9,N
1499060575.1,286047002.1,N
1499060576.0,286047002.1,N
1499060595.8,286047007.3,N
1499060615.6,286047008.8,N
1499060635.5,286047006.9,N
1499060655.3,286047000.7,N
1499060675.1,286046998.3,N
1499060695.8,286046995.1,N
1499060715.7,286046996.8,N
1499060735.5,286047002.3,N
1499060755.3,286047003.7,N
1499060775.2,286047005.9,N
1499060795.9,286047008.8,N
1499060815.7,286047006.9,N
1499060835.6,286047005.1,N
1499060855.4,286047003.9,N
1499060875.2,286047001.3,N
1499060895.1,286046999.7,N
1499060896.0,286046999.7,N
1499060915.8,286047001.6,N
1499060935.6,286047005.2,N
1499060955.5,286047002.5,N
1499060975.3,286046999.6,N
1499060995.1,286046999.6,N
1499061015.8,286046993.4,N
1499061035.7,286046994.5,N
1499061055.5,286046997.9,N
1499061075.3,286046995.4,N
1499061095.2,286046999.5,N
1499061115.0,286047001.2,N
1499061115.9,286047001.2,N
1499061135.7,286047001.9,N
1499061155.6,286046998.3,N
1499061175.4,286047000.9,N
1499061195.2,286047002.8,N
1499061215.1,286047001.2,N
1499061216.0,286047001.2,N
1499061235.8,286047002.9,N
1499061255.6,286047003.1,N
1499061275.5,286047001.3,N
1499061295.3,286046998.5,N
1499061315.1,286046994.5,N
1499061335.9,286046990.6,N
1499061355.7,286046992.4,N
1499061375.5,286046994.3,N
1499061395.3,286046997.7,N
1499061415.2,286047000.3,N
1499061435.0,286046998.2,N
1499061435.9,286046998.2,N
1499061455.7,286046996.8,N
1499061475.6,286046994.9,N
1499061495.4,286046995.3,N
1499061515.2,286046996.8,N
1499061535.1,286047002.4,N
1499061536.0,286047002.4,N
1499061555.8,286047002.5,N
1499061575.6,286047002.1,N
1499061595.5,286047002.2,N
